Location: Haliburton Scout Reserve
(45.0900°N, 78.3200°W)
Time: 04:11:08
(UTC-04:00)

LO-87 - Visible Passes

Search period start: 16 May 2022 00:00
Search period end: 26 May 2022 00:00
Orbit: 456 x 473 km, 97.4° (Epoch: 15 May)

Date Brightness Start Highest point End Pass type
(mag) Time Alt. Az. Time Alt. Az. Time Alt. Az.
16 May ? 01:18:52 22° NW 01:18:52 22° NW 01:20:33 10° NNW visible
17 May ? 00:47:58 39° NNW 00:47:58 39° NNW 00:50:16 10° NNW visible
18 May ? 00:17:02 33° NE 00:17:02 33° NE 00:19:32 10° N visible
18 May ? 01:50:58 11° WNW 01:50:58 11° WNW 01:51:17 10° WNW visible
18 May ? 23:46:04 17° ENE 23:46:04 17° ENE 23:48:14 10° NNE visible
19 May ? 01:20:01 23° WNW 01:20:01 23° WNW 01:21:48 10° NNW visible
20 May ? 00:49:02 43° NNW 00:49:02 43° NNW 00:51:29 10° NNW visible
21 May ? 00:18:01 36° NE 00:18:01 36° NE 00:20:40 10° N visible
21 May ? 01:51:57 11° WNW 01:51:57 11° WNW 01:52:20 10° WNW visible
21 May ? 23:46:59 18° ENE 23:46:59 18° ENE 23:49:19 10° NNE visible
22 May ? 01:20:55 24° WNW 01:20:55 24° WNW 01:22:50 10° NNW visible
23 May ? 00:49:51 47° NNW 00:49:51 47° NNW 00:52:27 10° NNW visible
24 May ? 00:18:47 38° NE 00:18:47 38° NE 00:21:34 10° N visible
24 May ? 01:52:43 11° WNW 01:52:43 11° WNW 01:53:10 10° WNW visible
24 May ? 23:47:41 18° ENE 23:47:45 18° ENE 23:50:10 10° NNE visible
25 May ? 01:21:36 24° WNW 01:21:36 24° WNW 01:23:39 10° NW visible
